Weather reports worldwide

Advertisment
Bridgefoot, United Kingdom (99137): temperature & dewpoint: 04.07.2020 05:00:00 - 10.07.2020 05:00:00 (BST)Bridgefoot, United Kingdom (99137): precipitation: 04.07.2020 05:00:00 - 10.07.2020 05:00:00 (BST)
Date & Time tt [°C] td [°C] rr [mm]
10.07.2020 05:00:00 - - -
10.07.2020 04:00:00 10,1 8,8 0,0
10.07.2020 03:00:00 9,6 8,1 0,0
10.07.2020 02:00:00 10,1 8,6 0,0
10.07.2020 01:00:00 10,1 7,5 0,0
10.07.2020 00:00:00 11,4 8,5 0,0
09.07.2020 23:00:00 12,1 9,3 0,2
09.07.2020 22:00:00 12,6 11,1 0,6
09.07.2020 21:00:00 14,0 10,2 0,0
09.07.2020 20:00:00 14,9 11,0 0,0
09.07.2020 19:00:00 15,2 10,1 0,0
09.07.2020 18:00:00 16,3 11,1 0,0
09.07.2020 17:00:00 18,8 8,7 0,0
09.07.2020 16:00:00 18,8 9,6 0,0
09.07.2020 15:00:00 18,5 9,7 0,0
09.07.2020 14:00:00 16,6 9,6 0,0
09.07.2020 13:00:00 16,9 9,8 0,0
09.07.2020 12:00:00 15,8 9,9 0,0
09.07.2020 11:00:00 14,7 9,5 0,0
09.07.2020 10:00:00 14,0 10,4 0,0
09.07.2020 09:00:00 12,6 10,4 0,0
09.07.2020 08:00:00 11,9 10,8 0,0
09.07.2020 07:00:00 11,7 10,4 0,0
09.07.2020 06:00:00 11,0 10,0 0,0
09.07.2020 05:00:00 11,1 9,8 0,0
09.07.2020 04:00:00 11,1 10,5 0,0
09.07.2020 03:00:00 11,3 10,7 0,0
09.07.2020 02:00:00 11,5 10,9 0,0
09.07.2020 01:00:00 11,6 11,0 0,2
09.07.2020 00:00:00 11,8 11,1 0,2
08.07.2020 23:00:00 12,2 11,5 0,4
08.07.2020 22:00:00 12,9 12,0 0,2
08.07.2020 21:00:00 13,3 12,2 0,4
08.07.2020 20:00:00 13,7 12,2 0,2
08.07.2020 19:00:00 14,1 12,0 0,2
08.07.2020 18:00:00 14,1 11,8 0,6
08.07.2020 17:00:00 14,6 10,9 0,0
08.07.2020 16:00:00 15,3 10,2 0,0
08.07.2020 15:00:00 16,0 10,7 0,0
08.07.2020 14:00:00 16,5 11,3 0,0
08.07.2020 13:00:00 17,7 9,6 0,0
08.07.2020 12:00:00 18,3 9,2 0,0
08.07.2020 11:00:00 17,6 9,8 0,0
08.07.2020 10:00:00 16,4 11,7 0,0
08.07.2020 09:00:00 14,6 10,9 0,0
08.07.2020 08:00:00 11,9 10,6 0,0
08.07.2020 07:00:00 10,0 9,8 0,0
08.07.2020 06:00:00 7,7 7,5 0,0
08.07.2020 05:00:00 7,1 6,8 0,0
08.07.2020 04:00:00 7,1 6,5 0,0
08.07.2020 03:00:00 8,2 7,2 0,0
08.07.2020 02:00:00 10,4 9,5 0,0
08.07.2020 01:00:00 10,9 10,1 0,0
08.07.2020 00:00:00 11,1 10,1 0,0
07.07.2020 23:00:00 11,4 9,9 0,0
07.07.2020 22:00:00 11,9 10,0 0,0
07.07.2020 21:00:00 12,2 10,1 0,0
07.07.2020 20:00:00 13,6 10,2 0,0
07.07.2020 19:00:00 13,5 8,7 0,0
07.07.2020 18:00:00 13,2 10,8 0,4
07.07.2020 17:00:00 11,5 9,8 0,0
07.07.2020 16:00:00 12,5 9,1 0,0
07.07.2020 15:00:00 12,3 9,5 0,0
07.07.2020 14:00:00 13,0 9,1 0,0
07.07.2020 13:00:00 13,2 9,7 0,0
07.07.2020 12:00:00 13,3 9,6 0,0
07.07.2020 11:00:00 12,4 10,2 0,2
07.07.2020 10:00:00 13,3 10,3 0,0
07.07.2020 09:00:00 12,7 9,5 0,0
07.07.2020 08:00:00 12,5 10,2 0,0
07.07.2020 07:00:00 11,5 10,0 0,0
07.07.2020 06:00:00 10,4 9,1 0,0
07.07.2020 05:00:00 11,3 8,4 0,0
07.07.2020 04:00:00 11,8 8,8 0,0
07.07.2020 03:00:00 11,8 9,0 0,0
07.07.2020 02:00:00 11,9 8,7 0,0
07.07.2020 01:00:00 12,1 8,8 0,0
07.07.2020 00:00:00 12,1 8,7 0,0
06.07.2020 23:00:00 12,0 7,6 0,0
06.07.2020 22:00:00 12,1 7,1 0,0
06.07.2020 21:00:00 12,8 7,3 0,0
06.07.2020 20:00:00 13,6 7,8 0,0
06.07.2020 19:00:00 14,3 8,2 0,0
06.07.2020 18:00:00 15,1 9,0 0,0
06.07.2020 17:00:00 16,0 8,7 0,0
06.07.2020 16:00:00 15,2 8,3 0,0
06.07.2020 15:00:00 16,3 7,4 0,0
06.07.2020 14:00:00 16,2 8,5 0,0
06.07.2020 13:00:00 16,7 9,0 0,0
06.07.2020 12:00:00 15,2 8,8 0,0
06.07.2020 11:00:00 15,0 8,3 0,0
06.07.2020 10:00:00 14,4 9,1 0,0
06.07.2020 09:00:00 14,4 10,1 0,0
06.07.2020 08:00:00 13,3 9,8 0,0
06.07.2020 07:00:00 12,7 10,4 0,0
06.07.2020 06:00:00 12,0 10,3 0,0
06.07.2020 05:00:00 11,8 9,7 0,0
06.07.2020 04:00:00 11,7 9,0 0,0
06.07.2020 03:00:00 11,9 8,7 0,0
06.07.2020 02:00:00 11,9 8,6 0,0
06.07.2020 01:00:00 11,6 8,9 0,0
06.07.2020 00:00:00 11,9 8,9 0,0
05.07.2020 23:00:00 12,1 8,8 0,0
05.07.2020 22:00:00 12,3 8,8 0,2
05.07.2020 21:00:00 12,3 9,1 0,0
05.07.2020 20:00:00 12,0 9,8 0,4
05.07.2020 19:00:00 12,3 10,5 1,2
05.07.2020 18:00:00 12,7 9,9 1,0
05.07.2020 17:00:00 12,7 9,6 0,4
05.07.2020 16:00:00 13,6 10,4 0,0
05.07.2020 15:00:00 13,4 10,1 0,2
05.07.2020 14:00:00 14,0 9,8 0,0
05.07.2020 13:00:00 13,3 10,0 0,0
05.07.2020 12:00:00 14,7 10,1 0,0
05.07.2020 11:00:00 13,0 9,3 0,0
05.07.2020 10:00:00 13,2 9,2 0,0
05.07.2020 09:00:00 12,9 9,4 0,0
05.07.2020 08:00:00 13,1 10,1 0,0
05.07.2020 07:00:00 12,8 9,5 0,0
05.07.2020 06:00:00 13,3 10,8 0,0
05.07.2020 05:00:00 13,9 11,3 0,0
05.07.2020 04:00:00 14,5 13,3 0,0
05.07.2020 03:00:00 14,9 14,1 0,0
05.07.2020 02:00:00 14,7 14,1 0,0
05.07.2020 01:00:00 14,5 14,0 0,0
05.07.2020 00:00:00 14,3 13,8 0,2
04.07.2020 23:00:00 14,5 14,0 1,2
04.07.2020 22:00:00 15,2 14,5 1,2
04.07.2020 21:00:00 14,7 14,2 0,2
04.07.2020 20:00:00 14,8 14,3 0,0
04.07.2020 19:00:00 14,5 14,1 0,4
04.07.2020 18:00:00 14,6 14,0 0,2
04.07.2020 17:00:00 15,1 13,9 0,0
04.07.2020 16:00:00 15,5 14,9 0,2
04.07.2020 15:00:00 15,1 13,9 0,0
04.07.2020 14:00:00 14,9 14,1 0,0
04.07.2020 13:00:00 15,0 14,4 0,0
04.07.2020 12:00:00 14,7 13,9 0,0
04.07.2020 11:00:00 14,6 14,2 0,2
04.07.2020 10:00:00 14,2 13,7 0,2
04.07.2020 09:00:00 14,3 13,8 0,0
04.07.2020 08:00:00 14,1 14,0 0,0
04.07.2020 07:00:00 13,4 13,3 0,2
04.07.2020 06:00:00 13,1 13,0 0,0
04.07.2020 05:00:00 12,9 12,7 1,0

tt = temperature
td = dewpoint
rr = precipitation

Next stations